Flag Weather past 2 weeks in Abilene, Texas, U.S.A.

Now
57 °F

Clear.


Feels Like: 55 °F
Forecast: 57 / 80 °F
Wind: 8 mph from South

Location: Abilene Regional Airport

Current Time: Oct 30, 2014 at 8:46:27 AM

Latest Report: Oct 30, 2014 at 7:52 AM


Visibility: 10 mi

Pressure: 30.07 "Hg

Humidity: 81%

Dew point: 51 °F

Location of AbileneLocation

Historic Weather in Abilene — Graph

°F

Abilene temperature yesterday

Maximum temperature yesterday: 78 °F (at 4:52 PM)
Minimum temperature yesterday: 50 °F (at 6:52 AM)
Average temperature yesterday: 64 °F

Past Weeks' High & Low Weather Summary

 TemperatureHumidityPressure
High90 °F (Oct 16, 4:52 PM)93% (Oct 24, 6:52 AM)30.22 "Hg (Oct 24, 6:52 AM)
Low50 °F (Oct 29, 6:52 AM)18% (Oct 15, 1:52 PM)29.68 "Hg (Oct 27, 4:52 PM)
Average70 °F53%29.99 "Hg
* Reported Oct 15 6:52 AM — Oct 30 6:52 AM, Abilene, Weather by CustomWeather, © 2014

Note: Actual official high and low records may vary slightly from our data, if they occured in-between our weather recording intervals... More about our weather records

Advertising

Abilene weather history for previous 24 hours

 ConditionsComfort  
Time TempWeatherWind HumidityBarometerVisibility
6:52 AM
Oct 30
58 °FClear.8 mph75%30.06 "Hg10 mi
5:52 AM59 °FClear.7 mph72%30.05 "Hg10 mi
4:52 AM59 °FClear.8 mph69%30.05 "Hg10 mi
3:52 AM60 °FClear.13 mph67%30.06 "Hg10 mi
2:52 AM60 °FClear.10 mph65%30.07 "Hg10 mi
1:52 AM60 °FClear.9 mph62%30.07 "Hg10 mi
12:52 AM60 °FClear.9 mph60%30.08 "Hg10 mi
11:52 PM
Oct 29
63 °FClear.8 mph56%30.09 "Hg10 mi
10:52 PM63 °FClear.10 mph58%30.08 "Hg10 mi
9:52 PM63 °FClear.8 mph58%30.09 "Hg10 mi
8:52 PM66 °FClear.8 mph52%30.10 "Hg10 mi
7:52 PM68 °FClear.6 mph49%30.10 "Hg10 mi
6:52 PM72 °FSunny.7 mph43%30.09 "Hg10 mi
5:52 PM76 °FSunny.3 mph35%30.08 "Hg10 mi
4:52 PM78 °FSunny.N/A31%30.08 "Hg10 mi
3:52 PM76 °FSunny.3 mph32%30.09 "Hg10 mi
2:52 PM75 °FSunny.5 mph33%30.11 "Hg10 mi
1:52 PM75 °FSunny.No wind32%30.14 "Hg10 mi
12:52 PM73 °FSunny.7 mph34%30.18 "Hg10 mi
11:52 AM69 °FSunny.3 mph41%30.21 "Hg10 mi
10:52 AM63 °FSunny.3 mph48%30.22 "Hg10 mi
9:52 AM58 °FSunny.3 mph54%30.22 "Hg10 mi
8:52 AM52 °FClear.No wind66%30.22 "Hg10 mi
Weather by CustomWeather, © 2014

See weather overviewHow to use our weather pages